Location: Unspecified
(0.0000°N, 0.0000°E)
Time: 04:50:55
(UTC+00:00)

A-11 Canister half - Pass Details

Date: 21 April 2026
Orbit: 1523 x 1685 km, 47.3° (Epoch: 13 May)

Event Time Altitude Azimuth Distance (km) Brightness Sun altitude
Rises 07:07:10 0° 337° (NNW) 4,888 11.5 16.7°
Reaches altitude 10° 07:10:43 10° 345° (NNW) 3,883 11.2 17.6°
Maximum altitude 07:19:35 37° 49° (NE) 2,331 11.2 19.7°
Drops below altitude 10° 07:28:09 10° 112° (ESE) 3,777 12.1 21.8°
Sets 07:31:31 0° 121° (ESE) 4,741 12.3 22.7°
